Вернуться в каталог

STARLINK-37843

АктивенСвязьSSO
NORAD 69501·PAYLOAD·🇺🇸 United States

Запущен Jun 11, 2026 с Vandenberg Space Force Base

Loading…

Ближайшие Пролёты (ближайшие 24 часа)

TLE

СвежийSource: CelesTrak SupGP

Эпоха: Sep 15, 2026, 03:19 UTC

1 69501C 26131Z   26258.13868056 -.00050665  00000+0 -15728-2 0  2580
2 69501  97.2830 279.1533 0001282  93.3376 151.7852 15.33464068    16

Отслеживайте STARLINK-37843 в реальном времени с AllMySat

Download on the App Store